Date String (YYYY-MM-DD hh:mm:ss) UTC,Instrument flags,Ambient pressure (hPa),Sample flow (lpm),Bypass flow (lpm),Sample temperature (°C),Ambient temperature (°C),ASC tube jacket temperature (°C),LED temperature (°C),Box temperature (°C),Sample RH (%),Span deviation,Mass concentration (μg/m³),Mass concentration (μg/m³),Mass concentration (μg/m³)
DateTimeUTC,F1_M11,P_M11,Q1_M11,Q2_M11,T1_M11,T2_M11,T3_M11,T4_M11,T5_M11,U1_M11,ZSPAN_M11,X0_M11,X2_M11,X1_M11
2022-03-12 07:00:00,,0826.2,4.99,0.00,22.6,22.4,00.0,31.6,24.3,07.6,0000.0,0008.86,0004.95,0004.36
2022-03-12 07:01:00,,0826.2,5.02,0.00,22.7,23.1,00.0,31.7,24.6,07.6,0001.4,0009.18,0004.98,0004.37
2022-03-12 07:02:00,,0826.3,4.99,0.00,22.8,23.4,00.0,31.7,24.8,07.5,0003.2,0009.20,0004.98,0004.38
2022-03-12 07:03:00,,0826.3,5.00,0.00,22.8,23.0,00.0,31.7,24.7,07.5,0003.9,0009.16,0004.97,0004.39
2022-03-12 07:04:00,,0826.3,5.00,0.00,22.8,22.6,00.0,31.7,24.6,07.5,0003.9,0009.39,0004.95,0004.39
2022-03-12 07:05:00,,0826.2,5.00,0.00,22.8,22.3,00.0,31.7,24.5,07.6,0003.3,0009.42,0004.97,0004.40
2022-03-12 07:06:00,,0826.2,4.99,0.00,22.7,22.0,00.0,31.7,24.4,07.6,0001.2,0009.35,0004.96,0004.40
2022-03-12 07:07:00,,0826.2,5.00,0.00,22.7,21.7,00.0,31.7,24.3,07.6,0000.0,0009.21,0004.93,0004.42
2022-03-12 07:08:00,,0826.3,5.01,0.00,22.6,21.6,00.0,31.6,24.3,07.7,0000.0,0009.70,0004.93,0004.42
2022-03-12 07:09:00,,0826.2,4.99,0.00,22.6,21.6,00.0,31.6,24.2,07.7,0000.0,0009.74,0004.94,0004.42
2022-03-12 07:10:00,,0826.1,5.01,0.00,22.6,21.6,00.0,31.6,24.2,07.7,0000.0,0010.14,0004.96,0004.42
2022-03-12 07:11:00,,0826.0,4.99,0.00,22.5,21.6,00.0,31.6,24.2,07.7,0000.0,0010.66,0004.97,0004.42
2022-03-12 07:12:00,,0825.9,5.01,0.00,22.5,21.6,00.0,31.6,24.1,07.7,0000.0,0010.32,0004.94,0004.42
2022-03-12 07:13:00,,0825.9,5.00,0.00,22.5,21.6,00.0,31.6,24.1,07.7,0000.0,0010.11,0004.90,0004.41
2022-03-12 07:14:00,,0825.9,4.99,0.00,22.4,21.5,00.0,31.6,24.1,07.7,0000.0,0010.11,0004.88,0004.40
2022-03-12 07:15:00,,0825.8,4.99,0.00,22.4,21.5,00.0,31.5,24.1,07.7,0000.0,0009.91,0004.90,0004.39
2022-03-12 07:16:00,,0825.8,5.00,0.00,22.4,21.9,00.0,31.5,24.1,07.6,0000.0,0009.80,0004.86,0004.36
2022-03-12 07:17:00,,0825.9,5.01,0.00,22.6,22.5,00.0,31.6,24.4,07.5,0000.0,0010.00,0004.83,0004.32
2022-03-12 07:18:00,,0826.0,4.99,0.00,22.7,23.2,00.0,31.6,24.6,07.6,0000.0,0010.59,0004.83,0004.30
2022-03-12 07:19:00,,0826.0,4.99,0.00,22.8,23.1,00.0,31.6,24.6,07.6,0000.0,0010.34,0004.85,0004.29
2022-03-12 07:20:00,,0826.0,5.01,0.00,22.7,22.8,00.0,31.6,24.6,07.7,0000.0,0010.89,0004.88,0004.29
2022-03-12 07:21:00,,0826.0,5.00,0.00,22.7,22.5,00.0,31.6,24.5,07.7,0000.0,0010.55,0004.87,0004.29
2022-03-12 07:22:00,,0825.9,5.00,0.00,22.7,22.3,00.0,31.6,24.4,07.7,0000.0,0010.18,0004.90,0004.29
2022-03-12 07:23:00,,0825.8,5.02,0.00,22.7,22.1,00.0,31.6,24.4,07.6,0000.0,0010.33,0004.93,0004.29
2022-03-12 07:24:00,,0825.7,5.00,0.00,22.6,22.0,00.0,31.6,24.3,07.6,0000.0,0010.49,0004.99,0004.30
2022-03-12 07:25:00,,0825.7,4.99,0.00,22.6,21.9,00.0,31.6,24.2,07.6,0000.0,0011.07,0005.03,0004.30
2022-03-12 07:26:00,,0825.7,5.01,0.00,22.6,21.8,00.0,31.6,24.2,07.7,0000.0,0011.47,0005.01,0004.30
2022-03-12 07:27:00,,0825.7,5.00,0.00,22.5,21.7,00.0,31.6,24.1,07.8,0000.0,0011.52,0005.07,0004.33
2022-03-12 07:28:00,,0825.7,4.99,0.00,22.5,21.6,00.0,31.6,24.1,07.8,0000.0,0011.50,0005.10,0004.37
2022-03-12 07:29:00,,0825.7,5.02,0.00,22.4,21.6,00.0,31.5,24.0,07.8,0000.0,0010.84,0005.13,0004.38
2022-03-12 07:30:00,,0825.7,5.00,0.00,22.4,21.5,00.0,31.5,24.0,07.9,0000.0,0010.62,0005.13,0004.39
2022-03-12 07:31:00,,0825.8,5.00,0.00,22.4,21.9,00.0,31.5,24.1,07.9,0000.0,0010.19,0005.13,0004.40
2022-03-12 07:32:00,,0825.9,5.01,0.00,22.6,22.6,00.0,31.6,24.4,07.9,0000.0,0010.20,0005.13,0004.40
2022-03-12 07:33:00,,0825.8,5.00,0.00,22.7,23.2,00.0,31.6,24.6,07.8,0000.0,0010.26,0005.11,0004.42
2022-03-12 07:34:00,,0825.7,4.99,0.00,22.8,23.1,00.0,31.6,24.7,07.8,0000.0,0010.41,0005.11,0004.43
2022-03-12 07:35:00,,0825.7,5.00,0.00,22.8,22.8,00.0,31.6,24.6,07.8,0000.0,0010.62,0005.09,0004.44
2022-03-12 07:36:00,,0825.8,5.01,0.00,22.7,22.6,00.0,31.6,24.5,07.8,0000.0,0010.63,0005.13,0004.47
2022-03-12 07:37:00,,0825.8,4.99,0.00,22.7,22.3,00.0,31.6,24.4,07.9,0000.0,0010.60,0005.16,0004.49
2022-03-12 07:38:00,,0825.6,5.00,0.00,22.7,22.0,00.0,31.6,24.3,07.9,0000.0,0010.67,0005.15,0004.50
2022-03-12 07:39:00,,0825.5,5.00,0.00,22.6,21.9,00.0,31.6,24.3,07.9,0000.0,0010.56,0005.16,0004.51
2022-03-12 07:40:00,,0825.6,5.01,0.00,22.6,21.8,00.0,31.6,24.1,07.9,0000.0,0010.51,0005.11,0004.51
2022-03-12 07:41:00,,0825.7,5.00,0.00,22.5,21.7,00.0,31.6,24.1,07.9,0000.0,0010.78,0005.11,0004.50
2022-03-12 07:42:00,,0825.8,4.99,0.00,22.5,21.6,00.0,31.6,24.1,07.9,0000.0,0010.69,0005.09,0004.50
2022-03-12 07:43:00,,0825.7,5.00,0.00,22.5,21.6,00.0,31.5,24.1,07.9,0000.0,0010.86,0005.10,0004.50
2022-03-12 07:44:00,,0825.7,5.01,0.00,22.4,21.5,00.0,31.5,24.1,08.0,0000.0,0010.77,0005.10,0004.50
2022-03-12 07:45:00,,0825.7,5.00,0.00,22.4,21.5,00.0,31.5,24.0,08.0,0000.0,0010.48,0005.09,0004.51
2022-03-12 07:46:00,,0825.7,5.00,0.00,22.4,21.9,00.0,31.5,24.1,08.0,0000.0,0010.17,0005.08,0004.51
2022-03-12 07:47:00,,0825.7,4.99,0.00,22.6,22.7,00.0,31.6,24.4,07.9,0000.0,0009.60,0005.05,0004.51
2022-03-12 07:48:00,,0825.8,5.01,0.00,22.7,23.2,00.0,31.6,24.6,07.9,0000.0,0009.36,0005.00,0004.50
2022-03-12 07:49:00,,0825.8,4.99,0.00,22.8,23.0,00.0,31.6,24.6,07.9,0000.0,0009.77,0005.01,0004.51
2022-03-12 07:50:00,,0825.8,5.00,0.00,22.7,22.7,00.0,31.6,24.6,07.9,0000.0,0010.13,0005.05,0004.53
2022-03-12 07:51:00,,0825.8,5.00,0.00,22.7,22.3,00.0,31.6,24.4,07.9,0000.5,0010.31,0005.07,0004.56
2022-03-12 07:52:00,,0825.9,5.00,0.00,22.7,22.0,00.0,31.6,24.3,08.0,0001.4,0010.07,0005.11,0004.59
2022-03-12 07:53:00,,0825.8,5.01,0.00,22.6,21.8,00.0,31.6,24.3,08.0,0002.2,0010.10,0005.14,0004.63
2022-03-12 07:54:00,,0825.7,4.99,0.00,22.6,21.6,00.0,31.6,24.2,08.0,0002.2,0010.02,0005.19,0004.67
2022-03-12 07:55:00,,0825.7,5.01,0.00,22.5,21.5,00.0,31.5,24.0,08.0,0002.2,0009.97,0005.21,0004.69
2022-03-12 07:56:00,,0825.9,4.99,0.00,22.4,21.5,00.0,31.5,24.0,08.1,0000.5,0010.56,0005.27,0004.71
2022-03-12 07:57:00,,0825.9,5.00,0.00,22.4,21.4,00.0,31.5,23.9,08.2,0000.6,0010.85,0005.33,0004.75
2022-03-12 07:58:00,,0825.9,5.01,0.00,22.3,21.3,00.0,31.5,23.9,08.2,0000.0,0011.07,0005.37,0004.79
2022-03-12 07:59:00,,0825.8,5.01,0.00,22.3,21.2,00.0,31.5,23.9,08.2,0000.0,0011.15,0005.43,0004.83
